Zurück zum Katalog

S-Net B

S-NET B

AktivAmateurfunkSSO
NORAD 43187·PAYLOAD·🇩🇪 Germany

Gestartet Feb 1, 2018 von Vostochny Cosmodrome

Loading…

Nächste Überflüge (nächste 24 Stunden)

TLE

AktuellSource: AMSAT

Epoche: Sep 14, 2026, 04:35 UTC

1 43187U 18014H   26257.19103938  .00003450  00000-0  17612-3 0  9995
2 43187  97.5258 161.4092 0010362  69.4341 290.8003 15.17340993472257

Verfolge S-Net B in Echtzeit mit AllMySat

Download on the App Store